GW3031 Weather Reports


time (UTC)temp
C
wind
direction
speed
KPH
gust
KPH
rain 1hr
cm
rain 24hr
cm
rain mn
cm
humidity
%
barometer
mb
20260510071557 11 0 0.0 0.0 0.00 0.00 0.00 90 1010.3
20260510070058 11 0 0.0 0.0 0.00 0.00 0.00 90 1010.1
20260510064559 11 0 0.0 0.0 0.00 0.00 0.00 89 1009.9
20260510063059 12 0 0.0 0.0 0.00 0.00 0.00 89 1009.7
20260510061600 12 0 0.0 0.0 0.00 0.00 0.00 88 1009.7
20260510054600 12 0 0.0 0.0 0.00 0.00 0.00 88 1009.9
20260510053059 13 0 0.0 0.0 0.00 0.00 0.00 87 1010.0
20260510051604 13 0 0.0 0.0 0.00 0.00 0.00 87 1010.0
20260510050059 13 0 0.0 0.0 0.00 0.00 0.00 87 1010.0
20260510044559 13 0 0.0 0.0 0.00 0.00 0.00 87 1009.9
20260510043103 13 0 0.0 0.0 0.00 0.00 0.00 86 1009.8
20260510041601 13 0 0.0 0.0 0.00 0.00 0.00 85 1009.8
20260510040100 14 0 0.0 0.0 0.00 0.00 0.00 85 1009.7
20260510034601 14 0 0.0 0.0 0.00 0.00 0.00 84 1009.6
20260510033134 15 0 0.0 0.0 0.00 0.00 0.00 82 1009.6
20260510031602 15 0 0.0 0.0 0.00 0.00 0.00 82 1009.6
20260510030059 15 0 0.0 0.0 0.00 0.00 0.00 81 1009.7
20260510024607 15 0 0.0 0.0 0.00 0.00 0.00 81 1009.6
20260510023102 15 0 0.0 0.0 0.00 0.00 0.00 80 1009.4
20260510021600 15 0 0.0 0.0 0.00 0.00 0.00 80 1009.4
20260510020100 16 0 0.0 0.0 0.00 0.00 0.00 80 1009.2
20260510014602 16 0 0.0 0.0 0.00 0.00 0.00 78 1009.2
20260510013102 16 0 0.0 0.0 0.00 0.00 0.00 77 1008.9
20260510011559 17 0 0.0 0.0 0.00 0.00 0.00 74 1008.6
20260510004600 18 0 0.0 0.0 0.00 0.00 0.00 71 1008.2
20260510003107 18 0 0.0 0.0 0.00 0.00 0.00 68 1008.0
20260510001603 19 0 0.0 0.0 0.00 0.00 0.00 66 1007.9
20260510000104 20 0 0.0 0.0 0.00 0.00 0.00 65 1007.7
20260509234615 20 0 0.0 0.0 0.00 0.00 0.00 63 1007.6
20260509233100 21 0 0.0 0.0 0.00 0.00 0.00 62 1007.4
20260509231602 21 0 0.0 0.0 0.00 0.00 0.00 60 1007.5
20260509230106 21 0 0.0 1.6 0.00 0.00 0.00 59 1007.4
20260509224603 22 0 0.0 1.6 0.00 0.00 0.00 59 1007.4
20260509223104 22 0 0.0 1.6 0.00 0.00 0.00 57 1007.4
20260509221559 22 0 0.0 0.0 0.00 0.00 0.00 57 1007.4
20260509220059 22 0 0.0 1.6 0.00 0.00 0.00 54 1007.4
20260509214601 22 0 0.0 0.0 0.00 0.00 0.00 56 1007.3
20260509213100 22 0 0.0 1.6 0.00 0.00 0.00 55 1007.4
20260509211600 22 0 0.0 1.6 0.00 0.00 0.00 55 1007.3
20260509210104 22 0 0.0 3.2 0.00 0.00 0.00 56 1007.4
20260509204607 23 0 0.0 4.8 0.00 0.00 0.00 54 1007.4
20260509203115 23 0 0.0 9.7 0.00 0.00 0.00 55 1007.3
20260509201559 22 0 0.0 3.2 0.00 0.00 0.00 56 1007.2
20260509200100 22 0 0.0 6.4 0.00 0.00 0.00 56 1007.7
20260509194558 23 0 0.0 4.8 0.00 0.00 0.00 56 1007.9
20260509193100 22 0 0.0 8.0 0.00 0.00 0.00 57 1008.2
20260509191600 21 264 0.0 8.0 0.00 0.00 0.00 58 1008.5
20260509190100 21 0 0.0 1.6 0.00 0.00 0.00 59 1008.6
20260509184601 21 0 0.0 6.4 0.00 0.00 0.00 61 1008.5
20260509183113 20 0 0.0 1.6 0.00 0.00 0.00 61 1008.7
20260509181611 20 0 0.0 0.0 0.00 0.00 0.00 62 1009.0
20260509180116 20 0 0.0 0.0 0.00 0.00 0.00 62 1009.4
20260509174600 20 0 0.0 0.0 0.00 0.00 0.00 62 1009.6
20260509173111 21 0 0.0 4.8 0.00 0.00 0.00 59 1009.5
20260509171600 21 0 0.0 3.2 0.00 0.00 0.00 58 1009.6
20260509170101 20 0 0.0 6.4 0.00 0.00 0.00 60 1009.7
20260509164600 20 0 0.0 4.8 0.00 0.00 0.00 61 1009.8
20260509163109 20 0 0.0 12.9 0.00 0.00 0.00 61 1009.9
20260509161603 20 0 0.0 8.0 0.00 0.00 0.00 59 1009.9
20260509160059 21 0 0.0 6.4 0.00 0.00 0.00 58 1009.8
20260509154614 21 0 0.0 8.0 0.00 0.00 0.00 60 1010.0
20260509153110 21 0 0.0 4.8 0.00 0.00 0.00 60 1010.1
20260509151609 20 0 0.0 6.4 0.00 0.00 0.00 58 1010.1
20260509150100 20 0 0.0 3.2 0.00 0.00 0.00 59 1010.3
20260509144601 18 0 0.0 3.2 0.00 0.00 0.00 63 1010.4
20260509143110 17 0 0.0 0.0 0.00 0.00 0.00 66 1010.7
20260509141602 16 0 0.0 6.4 0.00 0.00 0.00 65 1010.8
20260509140058 15 0 0.0 4.8 0.00 0.00 0.00 67 1010.6
20260509134600 15 0 0.0 1.6 0.00 0.00 0.00 65 1010.7
20260509133107 15 0 0.0 3.2 0.00 0.00 0.00 67 1010.7
20260509131559 15 0 0.0 3.2 0.00 0.00 0.00 66 1010.8
20260509130115 15 0 0.0 6.4 0.00 0.00 0.00 66 1010.7
20260509124601 15 138 0.0 14.5 0.00 0.00 0.00 65 1010.6
20260509123100 14 243 0.0 9.7 0.00 0.00 0.00 65 1010.5
20260509121600 14 0 0.0 1.6 0.00 0.00 0.00 65 1010.5
20260509120101 14 0 0.0 6.4 0.00 0.00 0.00 65 1010.4
20260509114558 13 0 0.0 4.8 0.00 0.00 0.00 65 1010.5
20260509113059 13 0 0.0 3.2 0.00 0.00 0.00 63 1010.4
20260509111606 14 0 0.0 3.2 0.00 0.00 0.00 61 1010.3
20260509110100 14 0 0.0 1.6 0.00 0.00 0.00 59 1010.2
20260509104611 14 0 0.0 1.6 0.00 0.00 0.00 58 1010.2
20260509103111 14 0 0.0 1.6 0.00 0.00 0.00 58 1010.2
20260509101600 14 0 0.0 1.6 0.00 0.00 0.00 58 1010.0
20260509100059 14 0 0.0 1.6 0.00 0.00 0.00 59 1009.9
20260509094600 14 0 0.0 4.8 0.00 0.00 0.00 58 1009.8
20260509093103 13 0 0.0 1.6 0.00 0.00 0.00 59 1010.0
20260509091559 13 0 0.0 4.8 0.00 0.00 0.00 59 1010.1
20260509090100 13 0 0.0 1.6 0.00 0.00 0.00 59 1010.2
20260509084608 13 0 0.0 3.2 0.00 0.00 0.00 59 1010.3
20260509083111 13 0 0.0 3.2 0.00 0.00 0.00 59 1010.4
20260509081609 13 0 0.0 9.7 0.00 0.00 0.00 59 1010.6
20260509074604 13 188 0.0 9.7 0.00 0.00 0.00 59 1010.8
20260509073100 13 0 0.0 8.0 0.00 0.00 0.00 59 1010.8